Overview Statistics Trail Chart Weather Telemetry Raw packets
 

This is the latest recevied weather packets stored in our database for station/object K7CTM. If no packets are shown the sender has not sent any weather packets the latest 10 day(s).

<< 1 2 3 4 5 6 7 >>
Time Temp. Humidity Pressure Rain* Wind** Luminosity Snow
1788604773 15.56° C 49% 1025.6 hPa 0 mm - 0 W/m² -
1788604468 15° C 50% 1025.6 hPa 0 mm - 0 W/m² -
1788604164 15° C 51% 1026.2 hPa 0 mm - 0 W/m² -
1788603860 15.56° C 49% 1026.1 hPa 0 mm - 0 W/m² -
1788603555 15° C 50% 1026.2 hPa 0 mm - 0 W/m² -
1788603254 14.44° C 52% 1026.2 hPa 0 mm - 0 W/m² -
1788602949 14.44° C 52% 1026.3 hPa 0 mm - 0 W/m² -
1788602645 15° C 51% 1026.1 hPa 0 mm - 0 W/m² -
1788602344 15° C 50% 1026.3 hPa 0 mm - 0 W/m² -
1788602039 14.44° C 51% 1026.3 hPa 0 mm - 0 W/m² -
1788601739 14.44° C 51% 1026.8 hPa 0 mm - 0 W/m² -
1788601434 15° C 51% 1026.9 hPa 0 mm - 0 W/m² -
1788601133 14.44° C 52% 1026.5 hPa 0 mm - 0 W/m² -
1788600829 14.44° C 54% 1026.6 hPa 0 mm - 0 W/m² -
1788600525 15.56° C 48% 1026.1 hPa 0 mm - 0 W/m² -
1788600224 14.44° C 50% 1025.7 hPa 0 mm - 0 W/m² -
1788599919 13.89° C 52% 1025.6 hPa 0 mm - 0 W/m² -
1788599614 15° C 51% 1025.7 hPa 0 mm - 0 W/m² -
1788599312 15° C 50% 1026 hPa 0 mm - 0 W/m² -
1788599008 15.56° C 48% 1026.1 hPa 0 mm - 0 W/m² -
1788598707 15.56° C 48% 1026.2 hPa 0 mm - 0 W/m² -
1788598402 16.11° C 47% 1025.8 hPa 0 mm - 0 W/m² -
1788598098 15.56° C 48% 1025.8 hPa 0 mm - 0 W/m² -
1788597797 15.56° C 48% 1025.7 hPa 0 mm - 0 W/m² -
1788597492 15° C 48% 1026 hPa 0 mm - 0 W/m² -

* Rain latest hour (hover to see other rain measurements)
** Current wind speed in m/s (hover to see current wind gust speed)